This is the latest recevied weather packets stored in our database for station/object EA3DJ-10. If no packets are shown the sender has not sent any weather packets the latest 10 day(s).
| Time | Temp. | Humidity | Pressure | Rain* | Wind** | Luminosity | Snow |
|---|---|---|---|---|---|---|---|
| 1787794718 | 28.33° C | 53% | 1011.9 hPa | - | - | - | - |
| 1787793518 | 27.78° C | 51% | 1012 hPa | - | - | - | - |
| 1787792317 | 27.78° C | 51% | 1012.3 hPa | - | - | - | - |
| 1787791117 | 27.78° C | 47% | 1012.6 hPa | - | - | - | - |
| 1787789917 | 27.22° C | 43% | 1013 hPa | - | - | - | - |
| 1787788717 | 25° C | 41% | 1013.5 hPa | - | - | - | - |
| 1787787517 | 25.56° C | 44% | 1013.7 hPa | - | - | - | - |
| 1787786317 | 27.22° C | 51% | 1013.7 hPa | - | - | - | - |
| 1787785117 | 28.89° C | 49% | 1013.4 hPa | - | - | - | - |
| 1787783917 | 28.89° C | 46% | 1013.5 hPa | - | - | - | - |
| 1787782717 | 28.89° C | 45% | 1013.1 hPa | - | - | - | - |
| 1787781516 | 28.33° C | 42% | 1013.2 hPa | - | - | - | - |
| 1787780316 | 26.67° C | 45% | 1013.2 hPa | - | - | - | - |
| 1787779116 | 27.78° C | 49% | 1013.1 hPa | - | - | - | - |
| 1787777916 | 30° C | 47% | 1012.9 hPa | - | - | - | - |
| 1787776716 | 30° C | 46% | 1013 hPa | - | - | - | - |
| 1787775516 | 30° C | 45% | 1013 hPa | - | - | - | - |
| 1787774316 | 30.56° C | 43% | 1012.8 hPa | - | - | - | - |
| 1787773116 | 33.89° C | 36% | 1012.6 hPa | - | - | - | - |
| 1787771916 | 32.78° C | 38% | 1012.5 hPa | - | - | - | - |
| 1787770716 | 32.78° C | 37% | 1012.3 hPa | - | - | - | - |
| 1787769515 | 33.89° C | 35% | 1012.3 hPa | - | - | - | - |
| 1787768315 | 35.56° C | 32% | 1012.4 hPa | - | - | - | - |
| 1787767112 | 32.78° C | 37% | 1012.5 hPa | - | - | - | - |
| 1787765912 | 31.67° C | 37% | 1012.3 hPa | - | - | - | - |
* Rain since midnight (hover to see other rain measurements)
** Current wind speed in m/s (hover to see current wind gust speed)